Location: Mexico
(19.4000°N, 99.1500°W)
Time: 06:31:59
(UTC-06:00)

ISS - Visible Passes

Search period start: 17 December 2018 00:00
Search period end: 27 December 2018 00:00
Orbit: 401 x 408 km, 51.6° (Epoch: 18 December)

Date Brightness Start Highest point End Pass type
(mag) Time Alt. Az. Time Alt. Az. Time Alt. Az.
17 Dec -0.6 18:40:27 10° W 18:42:45 18° SW 18:45:03 10° S visible
20 Dec -0.6 06:14:54 10° SSE 06:17:10 17° SE 06:19:26 10° E visible
22 Dec -3.4 06:05:47 10° SSW 06:09:02 65° SE 06:12:17 10° NE visible
23 Dec -1.5 05:15:43 19° SSE 05:16:53 24° SE 05:19:35 10° ENE visible
24 Dec -3.0 06:01:11 30° NW 06:01:11 30° NW 06:03:55 10° NNE visible
